Hourly Weather Rudihovo

Today, 21 April, Wednesday

Time Temperature Precipitation Wind Pressure Humidity
00:00 +3°C° 0.4 mm 4 mps 744 mmHg 87%
01:00 +1°C° 0.4 mm 4 mps 743 mmHg 91%
02:00 0°C° 0 mm 5 mps 742 mmHg 96%
03:00 -1°C° 1.3 mm 5 mps 741 mmHg 96%
04:00 -1°C° 1.3 mm 5 mps 739 mmHg 97%
05:00 -2°C° 1.3 mm 5 mps 738 mmHg 97%
06:00 -1°C° 1.1 mm 4 mps 738 mmHg 97%
07:00 -1°C° 1.1 mm 4 mps 737 mmHg 98%
08:00 -1°C° 0 mm 4 mps 736 mmHg 98%
09:00 0°C° 0.6 mm 3 mps 735 mmHg 98%
10:00 +1°C° 0.6 mm 2 mps 735 mmHg 99%
11:00 +2°C° 0.6 mm 1 mps 734 mmHg 99%
12:00 +2°C° 0.2 mm 2 mps 735 mmHg 98%
13:00 +1°C° 0.2 mm 3 mps 735 mmHg 98%
14:00 0°C° 0 mm 4 mps 735 mmHg 97%
15:00 0°C° 0 mm 4 mps 736 mmHg 95%
16:00 0°C° 0 mm 4 mps 736 mmHg 93%
17:00 0°C° 0 mm 4 mps 736 mmHg 91%
18:00 0°C° 0 mm 4 mps 737 mmHg 92%
19:00 0°C° 0 mm 4 mps 737 mmHg 93%
20:00 0°C° 0 mm 4 mps 738 mmHg 94%
21:00 0°C° 0 mm 4 mps 738 mmHg 94%
22:00 +1°C° 0 mm 3 mps 738 mmHg 95%
23:00 +1°C° 0 mm 3 mps 738 mmHg 95%

Tomorrow, 22 April, Thursday

Time Temperature Precipitation Wind Pressure Humidity
00:00 +1°C° 0 mm 3 mps 739 mmHg 94%
01:00 0°C° 0 mm 4 mps 739 mmHg 92%
02:00 0°C° 0 mm 4 mps 739 mmHg 91%
03:00 0°C° 0 mm 4 mps 739 mmHg 92%
04:00 0°C° 0 mm 4 mps 739 mmHg 94%
05:00 0°C° 0 mm 4 mps 739 mmHg 96%
06:00 +1°C° 0 mm 4 mps 739 mmHg 93%
07:00 +3°C° 0 mm 4 mps 740 mmHg 89%
08:00 +5°C° 0 mm 5 mps 740 mmHg 86%
09:00 +5°C° 0.2 mm 5 mps 740 mmHg 86%
10:00 +5°C° 0.2 mm 5 mps 741 mmHg 86%
11:00 +5°C° 0.2 mm 5 mps 741 mmHg 87%
12:00 +7°C° 0 mm 5 mps 741 mmHg 79%
13:00 +9°C° 0 mm 5 mps 741 mmHg 72%
14:00 +10°C° 0 mm 5 mps 741 mmHg 65%
15:00 +11°C° 0.1 mm 4 mps 741 mmHg 66%
16:00 +11°C° 0.1 mm 4 mps 741 mmHg 67%
17:00 +11°C° 0.1 mm 3 mps 741 mmHg 69%
18:00 +10°C° 0 mm 4 mps 742 mmHg 75%
19:00 +7°C° 0 mm 4 mps 742 mmHg 81%
20:00 +6°C° 0 mm 4 mps 742 mmHg 87%
21:00 +6°C° 0 mm 4 mps 742 mmHg 88%
22:00 +6°C° 0 mm 4 mps 741 mmHg 90%
23:00 +5°C° 0 mm 5 mps 741 mmHg 91%

Day after tomorrow, 23 April, Friday

Time Temperature Precipitation Wind Pressure Humidity
00:00 +5°C° 0 mm 4 mps 741 mmHg 93%
01:00 +5°C° 0 mm 4 mps 741 mmHg 94%
02:00 +5°C° 0 mm 4 mps 741 mmHg 95%
03:00 +5°C° 0 mm 4 mps 741 mmHg 95%
04:00 +5°C° 0 mm 4 mps 741 mmHg 95%
05:00 +5°C° 0 mm 4 mps 740 mmHg 95%
06:00 +6°C° 0 mm 5 mps 741 mmHg 90%
07:00 +7°C° 0 mm 6 mps 741 mmHg 85%
08:00 +9°C° 0 mm 6 mps 741 mmHg 80%
09:00 +10°C° 0.1 mm 6 mps 741 mmHg 77%
10:00 +10°C° 0.1 mm 7 mps 741 mmHg 73%
11:00 +11°C° 0.1 mm 7 mps 740 mmHg 70%
12:00 +11°C° 0.5 mm 7 mps 741 mmHg 73%
13:00 +10°C° 0.5 mm 7 mps 741 mmHg 77%
14:00 +9°C° 0.5 mm 6 mps 741 mmHg 80%
15:00 +8°C° 0.9 mm 5 mps 741 mmHg 82%
16:00 +7°C° 0.9 mm 4 mps 742 mmHg 84%
17:00 +7°C° 0.9 mm 3 mps 742 mmHg 86%
18:00 +6°C° 0.5 mm 2 mps 742 mmHg 87%
19:00 +6°C° 0.5 mm 2 mps 742 mmHg 89%
20:00 +6°C° 0.5 mm 2 mps 742 mmHg 91%
21:00 +5°C° 1 mm 2 mps 742 mmHg 91%
22:00 +6°C° 1 mm 1 mps 741 mmHg 92%
23:00 +5°C° 1 mm 1 mps 741 mmHg 92%

24 April, Saturday

Time Temperature Precipitation Wind Pressure Humidity
00:00 +3°C° 2.1 mm 2 mps 740 mmHg 94%
01:00 +3°C° 2.1 mm 2 mps 740 mmHg 95%
02:00 +2°C° 2.1 mm 2 mps 739 mmHg 97%
03:00 +2°C° 1.9 mm 2 mps 739 mmHg 97%
04:00 +2°C° 1.9 mm 2 mps 738 mmHg 98%
05:00 +1°C° 1.9 mm 2 mps 738 mmHg 98%
06:00 +1°C° 1.8 mm 2 mps 738 mmHg 99%
07:00 +1°C° 1.8 mm 2 mps 737 mmHg 99%
08:00 +1°C° 1.8 mm 2 mps 737 mmHg 99%
09:00 +1°C° 1 mm 2 mps 737 mmHg 99%
10:00 +2°C° 1 mm 2 mps 737 mmHg 99%
11:00 +2°C° 1 mm 2 mps 737 mmHg 99%
12:00 +3°C° 0.2 mm 2 mps 737 mmHg 97%
13:00 +3°C° 0.2 mm 2 mps 737 mmHg 95%
14:00 +4°C° 0.2 mm 2 mps 738 mmHg 93%
15:00 +5°C° 0.1 mm 1 mps 738 mmHg 93%
16:00 +5°C° 0.1 mm 1 mps 738 mmHg 93%
17:00 +5°C° 0.1 mm 1 mps 738 mmHg 93%
18:00 +4°C° 0.4 mm 1 mps 738 mmHg 94%
19:00 +3°C° 0.4 mm 1 mps 738 mmHg 95%
20:00 +3°C° 0.4 mm 1 mps 738 mmHg 96%
21:00 +3°C° 0 mm 1 mps 737 mmHg 96%
22:00 +2°C° 0 mm 1 mps 737 mmHg 96%
23:00 +1°C° 0 mm 2 mps 737 mmHg 95%

25 April, Sunday

Time Temperature Precipitation Wind Pressure Humidity
00:00 -1°C° 0 mm 2 mps 737 mmHg 94%
01:00 -1°C° 0 mm 2 mps 737 mmHg 93%
02:00 -2°C° 0 mm 2 mps 736 mmHg 92%
03:00 -2°C° 0 mm 2 mps 736 mmHg 92%
04:00 -2°C° 0 mm 3 mps 736 mmHg 92%
05:00 -2°C° 0 mm 3 mps 736 mmHg 92%
06:00 0°C° 0 mm 3 mps 736 mmHg 89%
07:00 +1°C° 0 mm 3 mps 737 mmHg 85%
08:00 +1°C° 0 mm 4 mps 737 mmHg 81%
09:00 +1°C° 0 mm 4 mps 737 mmHg 79%
10:00 +1°C° 0 mm 4 mps 737 mmHg 78%
11:00 +1°C° 0 mm 4 mps 737 mmHg 76%
12:00 +3°C° 0 mm 4 mps 737 mmHg 73%
13:00 +3°C° 0 mm 4 mps 737 mmHg 70%
14:00 +4°C° 0 mm 4 mps 737 mmHg 67%
15:00 +4°C° 0.1 mm 4 mps 737 mmHg 68%
16:00 +4°C° 0.1 mm 4 mps 737 mmHg 69%
17:00 +4°C° 0.1 mm 4 mps 737 mmHg 69%
18:00 +3°C° 0 mm 3 mps 738 mmHg 75%
19:00 +1°C° 0 mm 3 mps 738 mmHg 81%
20:00 0°C° 0 mm 3 mps 738 mmHg 87%
21:00 -1°C° 0 mm 3 mps 738 mmHg 89%
22:00 -1°C° 0 mm 3 mps 738 mmHg 90%
23:00 -1°C° 0 mm 3 mps 738 mmHg 92%

26 April, Monday

Time Temperature Precipitation Wind Pressure Humidity
00:00 -2°C° 0 mm 3 mps 738 mmHg 93%
01:00 -2°C° 0 mm 2 mps 738 mmHg 93%
02:00 -2°C° 0 mm 2 mps 738 mmHg 94%
03:00 -2°C° 0 mm 2 mps 738 mmHg 94%
04:00 -2°C° 0 mm 2 mps 738 mmHg 93%
05:00 -2°C° 0 mm 2 mps 738 mmHg 93%
06:00 0°C° 0 mm 3 mps 738 mmHg 88%
07:00 0°C° 0 mm 4 mps 738 mmHg 82%
08:00 +1°C° 0 mm 4 mps 738 mmHg 77%
09:00 +1°C° 0 mm 4 mps 738 mmHg 76%
10:00 +1°C° 0 mm 4 mps 738 mmHg 75%
11:00 +1°C° 0 mm 5 mps 738 mmHg 75%
12:00 +1°C° 0 mm 4 mps 738 mmHg 73%
13:00 +3°C° 0 mm 4 mps 738 mmHg 71%
14:00 +3°C° 0 mm 4 mps 738 mmHg 69%
15:00 +3°C° 0.1 mm 4 mps 738 mmHg 70%
16:00 +3°C° 0.1 mm 4 mps 738 mmHg 71%
17:00 +3°C° 0.1 mm 3 mps 738 mmHg 71%
18:00 +2°C° 0 mm 3 mps 738 mmHg 76%
19:00 0°C° 0 mm 3 mps 738 mmHg 81%
20:00 -1°C° 0 mm 3 mps 738 mmHg 86%
21:00 -1°C° 0 mm 3 mps 738 mmHg 88%
22:00 -2°C° 0 mm 3 mps 738 mmHg 89%
23:00 -2°C° 0 mm 3 mps 738 mmHg 91%
Show more